| time (UTC) | temp C | wind direction | speed KPH | gust KPH | rain 1hr cm | rain 24hr cm | rain mn cm | humidity % | barometer mb |
| 20260901143041 | 11 | 171 | 0.0 | 8.0 | 0.00 | 0.00 | 0.00 | 80 | 1017.5 |
| 20260901141552 | 11 | 136 | 1.6 | 6.4 | 0.00 | 0.00 | 0.00 | 81 | 1017.7 |
| 20260901140043 | 11 | 149 | 1.6 | 8.0 | 0.00 | 0.00 | 0.00 | 81 | 1017.5 |
| 20260901134538 | 11 | 164 | 1.6 | 11.3 | 0.00 | 0.00 | 0.00 | 82 | 1017.6 |
| 20260901133040 | 11 | 208 | 3.2 | 14.5 | 0.00 | 0.00 | 0.00 | 81 | 1017.6 |
| 20260901131534 | 11 | 197 | 1.6 | 8.0 | 0.00 | 0.00 | 0.00 | 79 | 1018.0 |
| 20260901130032 | 11 | 139 | 1.6 | 11.3 | 0.00 | 0.00 | 0.00 | 77 | 1017.9 |
| 20260901124530 | 11 | 156 | 1.6 | 9.7 | 0.00 | 0.00 | 0.00 | 76 | 1017.7 |
| 20260901123029 | 11 | 172 | 3.2 | 14.5 | 0.00 | 0.00 | 0.00 | 75 | 1017.9 |
| 20260901121535 | 11 | 194 | 3.2 | 16.1 | 0.00 | 0.00 | 0.00 | 74 | 1017.9 |
| 20260901120038 | 11 | 219 | 4.8 | 19.3 | 0.00 | 0.00 | 0.00 | 75 | 1017.7 |
| 20260901114523 | 11 | 211 | 6.4 | 17.7 | 0.00 | 0.00 | 0.00 | 75 | 1017.7 |
| 20260901113020 | 11 | 198 | 4.8 | 16.1 | 0.00 | 0.00 | 0.00 | 75 | 1017.7 |
| 20260901111519 | 11 | 257 | 8.0 | 20.9 | 0.00 | 0.00 | 0.00 | 75 | 1017.6 |
| 20260901110016 | 11 | 219 | 6.4 | 19.3 | 0.00 | 0.00 | 0.00 | 76 | 1017.5 |
| 20260901104513 | 11 | 274 | 4.8 | 16.1 | 0.00 | 0.00 | 0.00 | 76 | 1017.5 |
| 20260901103011 | 11 | 216 | 8.0 | 20.9 | 0.00 | 0.00 | 0.00 | 75 | 1017.4 |
| 20260901101510 | 11 | 205 | 6.4 | 16.1 | 0.00 | 0.00 | 0.00 | 76 | 1017.3 |
| 20260901100010 | 11 | 207 | 4.8 | 17.7 | 0.00 | 0.00 | 0.00 | 76 | 1017.3 |
| 20260901094516 | 12 | 228 | 4.8 | 25.7 | 0.00 | 0.00 | 0.00 | 74 | 1017.2 |
| 20260901093006 | 12 | 190 | 6.4 | 12.9 | 0.00 | 0.00 | 0.00 | 75 | 1017.2 |
| 20260901091506 | 11 | 249 | 4.8 | 22.5 | 0.00 | 0.00 | 0.00 | 75 | 1017.3 |
| 20260901090008 | 12 | 166 | 4.8 | 17.7 | 0.00 | 0.00 | 0.00 | 76 | 1017.2 |
| 20260901084504 | 12 | 270 | 6.4 | 17.7 | 0.00 | 0.00 | 0.00 | 75 | 1017.2 |
| 20260901083059 | 12 | 193 | 4.8 | 16.1 | 0.00 | 0.00 | 0.00 | 75 | 1016.9 |
| 20260901081557 | 12 | 274 | 6.4 | 0.0 | 0.00 | 0.00 | 0.00 | 74 | 1016.8 |
| 20260901080055 | 12 | 271 | 8.0 | 20.9 | 0.00 | 0.00 | 0.00 | 72 | 1016.9 |
| 20260901074552 | 12 | 212 | 8.0 | 16.1 | 0.00 | 0.00 | 0.00 | 70 | 1016.6 |
| 20260901073051 | 12 | 214 | 8.0 | 16.1 | 0.00 | 0.00 | 0.00 | 70 | 1016.4 |
| 20260901071558 | 12 | 216 | 6.4 | 16.1 | 0.00 | 0.00 | 0.00 | 70 | 1016.5 |
| 20260901070046 | 12 | 208 | 6.4 | 17.7 | 0.00 | 0.00 | 0.00 | 70 | 1016.4 |
| 20260901064544 | 12 | 159 | 6.4 | 17.7 | 0.00 | 0.00 | 0.00 | 70 | 1016.0 |
| 20260901063043 | 12 | 219 | 4.8 | 12.9 | 0.00 | 0.00 | 0.00 | 70 | 1016.0 |
| 20260901061543 | 13 | 252 | 4.8 | 16.1 | 0.00 | 0.00 | 0.00 | 71 | 1015.8 |
| 20260901060039 | 13 | 191 | 3.2 | 11.3 | 0.00 | 0.00 | 0.00 | 71 | 1015.6 |
| 20260901054538 | 13 | 252 | 6.4 | 24.1 | 0.00 | 0.00 | 0.00 | 70 | 1015.3 |
| 20260901053042 | 13 | 294 | 4.8 | 19.3 | 0.00 | 0.00 | 0.00 | 70 | 1015.1 |
| 20260901051534 | 14 | 238 | 6.4 | 25.7 | 0.00 | 0.00 | 0.00 | 66 | 1015.1 |
| 20260901050034 | 15 | 259 | 8.0 | 17.7 | 0.00 | 0.00 | 0.00 | 64 | 1014.8 |
| 20260901044533 | 15 | 319 | 8.0 | 27.4 | 0.00 | 0.00 | 0.00 | 61 | 1014.8 |
| 20260901043030 | 15 | 211 | 8.0 | 22.5 | 0.00 | 0.00 | 0.00 | 59 | 1014.5 |
| 20260901041529 | 15 | 212 | 9.7 | 20.9 | 0.00 | 0.00 | 0.00 | 58 | 1014.3 |
| 20260901040029 | 16 | 204 | 6.4 | 17.7 | 0.00 | 0.00 | 0.00 | 60 | 1014.3 |
| 20260901034532 | 16 | 304 | 6.4 | 17.7 | 0.00 | 0.00 | 0.00 | 60 | 1014.3 |
| 20260901033026 | 16 | 231 | 11.3 | 32.2 | 0.00 | 0.00 | 0.00 | 59 | 1014.2 |
| 20260901031526 | 16 | 210 | 6.4 | 19.3 | 0.00 | 0.00 | 0.00 | 57 | 1014.1 |
| 20260901030027 | 16 | 246 | 4.8 | 19.3 | 0.00 | 0.00 | 0.00 | 56 | 1013.8 |
| 20260901024524 | 16 | 232 | 8.0 | 27.4 | 0.00 | 0.00 | 0.00 | 55 | 1013.6 |
| 20260901023031 | 16 | 217 | 9.7 | 27.4 | 0.00 | 0.00 | 0.00 | 54 | 1013.4 |
| 20260901021524 | 16 | 177 | 6.4 | 25.7 | 0.00 | 0.00 | 0.00 | 56 | 1013.3 |
| 20260901020022 | 16 | 267 | 8.0 | 30.6 | 0.00 | 0.00 | 0.00 | 59 | 1013.4 |
| 20260901014519 | 16 | 221 | 6.4 | 19.3 | 0.00 | 0.05 | 0.00 | 61 | 1013.4 |
| 20260901013019 | 16 | 174 | 11.3 | 25.7 | 0.00 | 0.05 | 0.00 | 60 | 1013.5 |
| 20260901011517 | 16 | 210 | 8.0 | 24.1 | 0.00 | 0.05 | 0.00 | 61 | 1013.5 |
| 20260901010016 | 16 | 222 | 8.0 | 22.5 | 0.00 | 0.05 | 0.00 | 62 | 1013.7 |
| 20260901004514 | 16 | 220 | 9.7 | 27.4 | 0.00 | 0.05 | 0.00 | 62 | 1014.0 |
| 20260901003016 | 16 | 241 | 9.7 | 29.0 | 0.00 | 0.05 | 0.00 | 60 | 1014.2 |
| 20260901001512 | 16 | 195 | 11.3 | 29.0 | 0.00 | 0.05 | 0.00 | 60 | 1014.3 |
| 20260901000010 | 16 | 250 | 8.0 | 25.7 | 0.00 | 0.05 | 0.00 | 62 | 1014.3 |
| 20260831234509 | 15 | 281 | 8.0 | 24.1 | 0.00 | 0.05 | 0.00 | 63 | 1014.4 |
| 20260831233011 | 15 | 188 | 6.4 | 25.7 | 0.00 | 0.05 | 0.00 | 63 | 1014.3 |
| 20260831231505 | 15 | 212 | 6.4 | 27.4 | 0.00 | 0.05 | 0.00 | 65 | 1014.1 |
| 20260831230005 | 15 | 285 | 8.0 | 24.1 | 0.00 | 0.05 | 0.00 | 63 | 1013.9 |
| 20260831224501 | 15 | 256 | 8.0 | 27.4 | 0.00 | 0.05 | 0.00 | 63 | 1013.8 |
| 20260831223100 | 14 | 229 | 11.3 | 29.0 | 0.00 | 0.05 | 0.00 | 63 | 1014.0 |
| 20260831221557 | 14 | 290 | 6.4 | 32.2 | 0.00 | 0.05 | 0.00 | 64 | 1013.9 |
| 20260831220055 | 14 | 167 | 11.3 | 37.0 | 0.00 | 0.05 | 0.00 | 63 | 1014.0 |
| 20260831214600 | 14 | 215 | 8.0 | 24.1 | 0.00 | 0.05 | 0.00 | 65 | 1013.9 |
| 20260831213054 | 13 | 217 | 6.4 | 20.9 | 0.00 | 0.05 | 0.00 | 67 | 1013.5 |
| 20260831211552 | 13 | 285 | 12.9 | 22.5 | 0.00 | 0.05 | 0.00 | 66 | 1013.2 |
| 20260831210046 | 13 | 273 | 6.4 | 17.7 | 0.00 | 0.05 | 0.00 | 66 | 1013.0 |
| 20260831204542 | 13 | 204 | 8.0 | 19.3 | 0.00 | 0.05 | 0.00 | 66 | 1012.8 |
| 20260831203038 | 13 | 170 | 3.2 | 11.3 | 0.00 | 0.05 | 0.00 | 69 | 1012.7 |
| 20260831201537 | 12 | 176 | 3.2 | 9.7 | 0.00 | 0.05 | 0.00 | 69 | 1012.6 |
| 20260831200037 | 12 | 172 | 6.4 | 12.9 | 0.00 | 0.05 | 0.00 | 70 | 1012.5 |
| 20260831194542 | 12 | 208 | 1.6 | 11.3 | 0.00 | 0.05 | 0.00 | 73 | 1012.3 |
| 20260831193033 | 11 | 165 | 6.4 | 12.9 | 0.00 | 0.05 | 0.00 | 72 | 1012.1 |
| 20260831191535 | 11 | 198 | 3.2 | 12.9 | 0.00 | 0.05 | 0.00 | 72 | 1012.0 |
| 20260831190029 | 11 | 245 | 8.0 | 20.9 | 0.00 | 0.05 | 0.00 | 72 | 1011.7 |
| 20260831184527 | 11 | 187 | 4.8 | 16.1 | 0.00 | 0.05 | 0.00 | 73 | 1011.4 |
| 20260831183025 | 11 | 212 | 1.6 | 8.0 | 0.00 | 0.05 | 0.00 | 74 | 1011.3 |
| 20260831181522 | 12 | 132 | 0.0 | 3.2 | 0.00 | 0.05 | 0.00 | 74 | 1010.9 |
| 20260831180019 | 12 | 338 | 1.6 | 12.9 | 0.00 | 0.05 | 0.00 | 74 | 1010.6 |
| 20260831174517 | 12 | 117 | 1.6 | 9.7 | 0.00 | 0.05 | 0.00 | 74 | 1010.2 |
| 20260831173015 | 12 | 83 | 1.6 | 14.5 | 0.00 | 0.05 | 0.00 | 73 | 1009.8 |
| 20260831171513 | 12 | 201 | 4.8 | 11.3 | 0.00 | 0.05 | 0.00 | 76 | 1009.7 |
| 20260831170012 | 12 | 116 | 1.6 | 9.7 | 0.00 | 0.05 | 0.00 | 75 | 1009.4 |
| 20260831164511 | 12 | 98 | 1.6 | 8.0 | 0.00 | 0.05 | 0.00 | 75 | 1009.4 |
| 20260831163013 | 12 | 150 | 0.0 | 16.1 | 0.00 | 0.05 | 0.00 | 74 | 1009.4 |
| 20260831161524 | 12 | 80 | 4.8 | 9.7 | 0.00 | 0.05 | 0.00 | 74 | 1009.0 |
| 20260831160014 | 12 | 270 | 3.2 | 9.7 | 0.00 | 0.05 | 0.00 | 74 | 1009.4 |
| 20260831154505 | 12 | 146 | 0.0 | 16.1 | 0.00 | 0.05 | 0.00 | 74 | 1009.2 |
| 20260831153004 | 12 | 354 | 6.4 | 14.5 | 0.00 | 0.05 | 0.00 | 74 | 1009.3 |
| 20260831151503 | 12 | 235 | 6.4 | 22.5 | 0.00 | 0.05 | 0.00 | 76 | 1009.5 |
| 20260831150003 | 13 | 150 | 0.0 | 16.1 | 0.00 | 0.05 | 0.00 | 76 | 1009.0 |
| 20260831144607 | 12 | 149 | 8.0 | 14.5 | 0.00 | 0.05 | 0.00 | 78 | 1009.4 |